Weather in Lapotkovo

Russia / Tula Oblast     53°50′28″N   37°25′31″E
temp.,
°C
wind,
m/s
gust,
m/s
humid.,
%
clouds,
%
prec.,
mm/h
press.,
hPa
HPBL,
m
2 december, thu
thu200:00−4w597395 0.0 9981048
03:00−6wnw610735 0.1 1001702
06:00−6w510755 0.0 1003615
09:00−5sw49865 0.0 1005439
12:00−3ssw51075100 0.0 1004521
15:00−2s71472100 0.0 1002695
18:00−2ssw81695100 1.8 1001697
21:000sw71597100 3.2 1001570
3 december, fri
fri300:00+1sw61397100 0.2 1002527
03:00+2ssw71495100 0.2 1002402
06:00+1sw61493100 0.0 1003389
09:00+1sw61493100 0.0 1005382
12:00+2ssw5119388 0.0 1005345
15:00+2s61393100 0.0 1004386
18:00+4s81690100 0.0 1002797
21:00+4ssw81592100 0.3 1000915
4 december, sat
sat400:000wnw61198100 3.4 1002523
03:00−1w51093100 5.1 1005633
06:00−3wsw511905 0.0 1007400
09:00−3sw61387100 0.0 1009470
12:00−2wsw6118680 0.0 1010624
15:00−3w61082100 0.1 1012846
18:00−2w5108178 0.1 1013807
21:00−3w48905 0.1 1015401
5 december, sun
sun500:00−4wsw37925 0.0 1016301
03:00−4wsw2492100 0.0 1017210
06:00−4sw1291100 0.0 1018122
09:00−3s2388100 0.0 1019201
12:00−2sse3482100 0.0 1019302
15:00−2se3586100 0.0 1019205
18:00−3se3786100 0.0 1020216
21:00−3se4982100 0.0 1020287
6 december, mon
mon600:00−2se51276100 0.0 1020381
03:00−2ese51274100 0.0 1020408
06:00−2se61373100 0.0 1020465
09:00−3ese71493100 0.2 1020458
12:00−2se61396100 1.1 1020463
15:00−1se51197100 2.6 1020395
18:00−1se51197100 0.8 1020345
21:000se51197100 1.1 1020335